Flag for U.S.A. Weather past 2 weeks in Olympia, Washington, U.S.A.

Now
64 °F

Sunny.


Feels Like: 64 °F
Forecast: 51 / 83 °F
Wind: No wind

Location: Olympia Airport

Current Time: Aug 23, 2014 at 11:05:55 AM

Latest Report: Aug 23, 2014 at 9:54 AM


Visibility: 10 mi

Pressure: 30.15 "Hg

Humidity: 70%

Dew point: 54 °F

Location of OlympiaLocation

Historic Weather in Olympia — Graph

°F

Olympia temperature yesterday

Maximum temperature yesterday: 77 °F (at 4:54 PM)
Minimum temperature yesterday: 45 °F (at 5:54 AM)
Average temperature yesterday: 62 °F

Past Weeks' High & Low Weather Summary

 TemperatureHumidityPressure
High94 °F (Aug 11, 2:54 PM)100% (Aug 17, 6:54 AM)30.16 "Hg (Aug 17, 6:54 AM)
Low45 °F (Aug 22, 5:54 AM)26% (Aug 11, 2:54 PM)29.79 "Hg (Aug 11, 6:54 PM)
Average66 °F70%30.00 "Hg
* Reported Aug 8 9:54 AM — Aug 23 9:54 AM, Olympia, Weather by CustomWeather, © 2014

Note: Actual official high and low records may vary slightly from our data, if they occured in-between our weather recording intervals... More about our weather records

Advertising

Olympia weather history for previous 24 hours

 ConditionsComfort  
Time TempWeatherWind HumidityBarometerVisibility
9:54 AM
Aug 23
64 °FSunny.No wind70%30.15 "Hg10 mi
8:54 AM58 °FSunny.No wind81%30.16 "Hg10 mi
7:54 AM52 °FSunny.No wind97%30.15 "Hg9 mi
6:49 AM49 °FFog.5 mph100%30.15 "Hg0 mi
6:03 AM49 °FFog.No wind97%30.14 "Hg5 mi
4:54 AM51 °FFog.No wind92%30.13 "Hg6 mi
3:54 AM51 °FClear.3 mph89%30.11 "Hg9 mi
2:54 AM52 °FClear.No wind93%30.11 "Hg10 mi
1:54 AM53 °FClear.No wind93%30.11 "Hg10 mi
12:54 AM54 °FClear.No wind90%30.10 "Hg10 mi
11:54 PM
Aug 22
58 °FClear.No wind81%30.10 "Hg10 mi
10:54 PM58 °FClear.No wind81%30.10 "Hg10 mi
9:54 PM64 °FClear.3 mph65%30.10 "Hg10 mi
8:54 PM66 °FSunny.6 mph59%30.08 "Hg10 mi
7:54 PM69 °FSunny.7 mph55%30.07 "Hg10 mi
6:54 PM74 °FSunny.8 mph52%30.05 "Hg10 mi
5:54 PM75 °FScattered clouds.8 mph48%30.05 "Hg10 mi
4:54 PM77 °FPassing clouds.No wind44%30.04 "Hg10 mi
3:54 PM76 °FPassing clouds.N/A43%30.04 "Hg10 mi
2:54 PM76 °FPassing clouds.9 mph43%30.05 "Hg10 mi
1:54 PM75 °FPassing clouds.12 mph45%30.06 "Hg10 mi
12:54 PM73 °FPassing clouds.7 mph50%30.06 "Hg10 mi
11:54 AM69 °FPassing clouds.6 mph55%30.07 "Hg10 mi
Weather by CustomWeather, © 2014

See weather overviewHow to use our weather pages